OneWeb SL0262

operational
NORAD ID: 48980 Int'l Des: 2021-060 Owner: ONEWEBN Country: UK Constellation: oneweb
LEOCIRCULARPOLARONEWEB_TYPE

Über OneWeb SL0262

Beschreibung wird geladen...

Live-Position

3D-Globus wird geladen...

Nächste Überflüge

Höhenverlauf

Altitude vs Time

uPlot chart will show altitude changes over time

Zweizeiliger Elementsatz

1 48980U 21060P 25352.69863750 .00000033 00000-0 52929-4 0 9996
2 48980 87.9051 264.7077 0001559 63.6906 296.4385 13.16596270215874
Epoch: 18. Dez. 2025 • Age: 13 hours

Aktueller Status

Höhe 1216.2 km
Geschwindigkeit 7.25 km/s
Subsatellitenpunkt -46.69°S, 94.85°E
Startdatum 1. Juli 2021
Alter 4.4 years
Typ internet

Technische Details

Klassifizierung Payload
Masse 148.00 kg
Trockenmasse 140.00 kg
Gesamtmasse 148.00 kg
Länge 1.30 m
Durchmesser 1.00 m
Spannweite 5.00 m
Form Trapezoid+2 pan
Hersteller ONEWUS
Bus-Typ ARROW
Phasenstatus In Orbit
Besitzer/Staat ONEWEBN/UK

Große Konstellationen

Loading constellations...